www.pogodaiklimat.ru

Погода и климат >> Архив погоды >> Россия >> Красноярский край >> Советская Речка


ПОГОДА в Советской Речке

  • Прогноз погоды в Советской Речке
  • Монитор погоды в Советской Речке

АРХИВ ПОГОДЫ в Советской Речке

Время (UTC), дата Ветер
(напр.,м/с)
 
Видим.   Явления Облачность Т
(С)
Тd
(С)
f
(%)
Тe
(С)
Тes
(С)
Комфортность P
(гПа)
Po
(гПа)
Тmin
(С)
Tmax
(С)
R
(мм)
R24
(мм)
S
(см)
21 19.03 З 2 н/о слаб. снег 10 баллов -8.2 -9.5 90 -13 -13 1025.9 1020.0
00 20.03 ЮЗ 2 н/о слаб. ливневой снег 10/10 600 м
[Cb cap]
-8.6 -9.7 92 -13 -13 1023.5 1017.6 -14.9 0.5 108
03 20.03 Ю 1 4000 м слаб. снег 10 баллов -7.9 -9.2 90 -10 -10 1023.2 1017.3
06 20.03 Ю 1 20 км 10 баллов -5.3 -7.1 87 -8 -8 1024.6 1018.7
09 20.03 Ю 1 20 км 10 баллов -4.2 -6.8 82 -6 -6 1021.8 1016.0
12 20.03 Ю 2 20 км 10/10 600 м
[Sc]
-3.6 -6.1 83 -8 -8 1019.1 1013.3 -3.6 0.2
15 20.03 Ю 5 н/о слаб. снег 10 баллов -3.0 -4.7 88 -10 -10 1017.8 1012.0
18 20.03 Ю 5 н/о слаб. снег 10 баллов -2.8 -4.4 89 -10 -10 1013.7 1008.0
21 20.03 Ю 5 н/о слаб. снег 10 баллов -1.8 -5.0 79 -8 -8 1009.7 1004.0
00 21.03 ЮЗ 6
{12}
н/о позёмок {снег} 10/10 600 м
[Sc]
-2.0 -4.8 81 -9 -9 1006.9 1001.3 -3.6 0.9 107
03 21.03 ЮЗ 5 4000 м слаб. снег 10 баллов -3.6 -5.1 89 -11 -11 1007.0 1001.3
06 21.03 ЮЗ 5 1000 м снег 10 баллов -3.4 -4.5 92 -10 -10 1007.0 1001.3
09 21.03 ЮЗ 5 4000 м слаб. снег 10 баллов -2.7 -4.0 91 -10 -10 1007.0 1001.3
12 21.03 ЮЗ 3 4000 м слаб. снег {метель} 10/0 600 м
[As op]
-2.2 -3.4 91 -7 -7 1006.0 1000.4 -2.0 2
15 21.03 З 2 н/о слаб. снег 10 баллов -3.2 -3.9 95 -7 -7 1008.4 1002.7
18 21.03 З 2 н/о 10 баллов -1.7 -2.5 94 -6 -6 1008.4 1002.7
21 21.03 З 2 н/о слаб. снег 10 баллов -2.0 -2.6 96 -6 -6 1008.4 1002.7
00 22.03 З 4 н/о слаб. снег 10/10 600 м
[Sc]
-1.7 -2.6 94 -8 -8 1006.9 1001.3 -3.5 1 112
03 22.03 З 4 10 км слаб. снег 10 баллов -1.6 -2.7 92 -8 -8 1008.4 1002.7
06 22.03 З 4 10 км слаб. ливневой снег 10 баллов -0.3 -2.0 88 -6 -6 1009.7 1004.0
09 22.03 ЮЗ 4 20 км 10 баллов -0.2 -1.9 88 -6 -6 1009.7 1004.0
12 22.03 З 3 20 км в посл. час ливневой снег 10/10 600 м
[Cb cap]
-0.5 -2.5 86 -5 -5 1011.0 1005.3 -0.1 0.2
15 22.03 СЗ 1 н/о 9 баллов -2.5 -4.4 87 -5 -5 1012.4 1006.7
18 22.03 СВ 1 н/о 10 баллов -3.0 -4.7 88 -5 -5 1013.8 1008.0
21 22.03 СВ 1 н/о 10 баллов -4.1 -5.9 87 -6 -6 1015.1 1009.3
00 23.03 СЗ 1 н/о 10/10 600 м
[Sc]
-4.6 -7.0 83 -7 -7 1015.4 1009.6 -4.6 112
03 23.03 СЗ 1 10 км слаб. снег 10 баллов -5.2 -6.6 90 -8 -8 1017.8 1012.0 -5.5
06 23.03 штиль 0 20 км 10 баллов -4.8 -6.8 86 -6 -6 1017.8 1012.0
09 23.03 ЮЗ 2 20 км 10 баллов -4.6 -7.0 83 -9 -9 1017.8 1012.0
12 23.03 ЮЗ 3 20 км 10/10 600 м
[Sc]
-6.0 -7.5 89 -12 -12 1016.8 1011.0 -4.2 0.2
15 23.03 ЮВ 1 н/о слаб. снег 10 баллов -6.6 -7.8 91 -9 -9 1017.9 1012.0
18 23.03 ЮВ 1 н/о слаб. снег 10 баллов -8.2 -9.3 92 -11 -11 1016.6 1010.7
21 23.03 Ю 2 н/о 10 баллов -6.8 -7.7 93 -11 -11 1015.1 1009.3
00 24.03 Ю 2 н/о слаб. снег 10/10 600 м
[Sc]
-5.5 -6.9 90 -10 -10 1014.0 1008.2 -8.9 0.4 114
03 24.03 ЮЗ 2 20 км 10 баллов -4.6 -5.8 91 -9 -9 1015.1 1009.3
12 24.03 Ю 1 20 км 9/0 2000 м
[Ac trans]
-2.1 -5.6 77 -4 -4 1016.8 1011.1 -2.1 0.2
00 25.03 ЮЗ 3 н/о {снег} 10/10 600 м
[Cb cap]
-2.9 -4.9 86 -8 -8 1017.6 1011.8 -4.3 0.0 112
06 25.03 ЮЗ 6
{11}
20 км позёмок 6/0 2000 м
[Ac trans Ci fib]
-3.0 -6.4 77 -10 -9 1018.8 1013.0
09 25.03 ЮЗ 7 20 км позёмок 10 баллов -1.7 -5.5 75 -9 -9 1020.5 1014.7
12 25.03 ЮЗ 6
{12}
20 км позёмок 8/0 2000 м
[Ac trans Ci fib]
-1.6 -5.7 74 -8 -8 1020.3 1014.6 -1.3
15 25.03 ЮЗ 6 н/о позёмок 7 баллов -1.4 -5.4 74 -8 -8 1021.8 1016.0
18 25.03 Ю 6
{10}
н/о позёмок 8/0 2000 м
[Ac trans Ci fib]
-2.0 -5.5 77 -9 -9 1020.6 1014.9
21 25.03 ЮЗ 5 н/о позёмок 9 баллов -2.2 -5.9 76 -9 -9 1021.8 1016.0
00 26.03 20 км позёмок н/о -2.1 -6.4 72 -8 -8 1021.8 1016.1 -2.6 106
03 26.03 Ю 5 20 км позёмок 7 баллов -1.7 -6.6 69 -8 -8 1023.1 1017.3 -3.0
06 26.03 Ю 6
{10}
20 км {метель} 4/0 2000 м
[Ac trans]
+1.0 -5.5 62 -5 -4 1023.0 1017.3
09 26.03 Ю 5 20 км 10 баллов +2.8 -4.9 57 -2 -2 1023.0 1017.3
12 26.03 Ю 4
{10}
20 км 10/0
[Cs]
+2.4 -5.0 58 -2 -2 1020.9 1015.2 +3.2
15 26.03 Ю 4 н/о 10 баллов +0.6 -5.4 64 -4 -4 1020.4 1014.7
18 26.03 Ю 5 н/о 6 баллов -0.1 -5.9 65 -6 -6 1019.0 1013.3

 

Местоположение метеостанции Советская Речка (Красноярский край, Россия): широта 66.82 долгота 83.80 высота над уровнем моря 45 м.

В архиве по умолчанию представлена погода в Советской Речке за последнюю неделю. Архивные данные за месяц целиком и за предыдущие месяцы, начиная с января 2011 года, Вы можете получить, выбрав интересующий диапазон дат из раскрывающегося списка и нажав кнопку "Ввод!".


*Определитесь, кто Вы:
робот инопланетянин человек

Внимание! Время в таблицах - всемирное. Для получения местного времени необходимо прибавить поправку, которая равна 7 ч.

Смотрите также архив погоды в соседних городах и на ближайших метеорологических станциях:

Погода в Красноселькупске (Ямало-Ненецкий АО, Россия) (138 км)
Погода в Игарке (Красноярский край, Россия) (140 км)
Погода в Курейке (Красноярский край, Россия) (156 км)
Погода в Горбиачине (Красноярский край, Россия) (189 км)
Погода в Светлогорске (Красноярский край, Россия) (202 км)
Погода в Туруханске (Красноярский край, Россия) (218 км)
Погода в Снежногорске (Красноярский край, Россия) (221 км)
Погода в Потапово (Красноярский край, Россия) (230 км)
Погода в Тазовском (Ямало-Ненецкий АО, Россия) (231 км)
Погода в Уренгое (Ямало-Ненецкий АО, Россия) (259 км)

Пояснения к столбцам:

Ветер - указаны скорость ветра в м/с - средняя за 10 мин, порывы в срок и между сроками (в фигурных скобках) и направление, откуда дует ветер: С - северный, СВ - северо-восточный, В - восточный, ЮВ - юго-восточный, Ю - южный, ЮЗ - юго-западный, З - западный, СЗ - северо-западный.
Видимость - горизонтальная дальность видимости в метрах или километрах. При видимости от 1 до 10 км при отсутствии осадков обычно наблюдается дымка, при ухудшении видимости до 1 км и менее - туман. В сухую погоду видимость может ухудшаться дымом, пылью или мглою.
Явления - указаны атмосферные явления, наблюдавшиеся в срок или в последний час перед сроком; фигурными скобками обозначены явления, наблюдавшиеся между сроками (за 1-3 часа до срока); квадратными скобками обозначены град или гололедные отложения с указанием их диаметра в мм.
Облачность - указаны через наклонную черту общая и нижняя облачность в баллах и высота нижней границы облаков в метрах; квадратными скобками обозначены формы облаков: Ci - перистые, Cs - перисто-слоистые, Cc - перисто-кучевые, Ac - высококучевые, As - высокослоистые, Sc - слоисто-кучевые, Ns - слоисто-дождевые, Cu - кучевые, Cb - кучево-дождевые. Подробнее классификацию облаков см. в Атласе облаков (PDF).
T - Температура воздуха - температура, измеренная на высоте 2 м над землей.
Td - Температура точки росы - температура, при понижении до которой содержащийся в воздухе водяной пар достигнет насыщения.
f - Относительная влажность воздуха - влажноcть воздуха, измеренная на высоте 2 м над землей.
Te - Эффективная температура - температура, которую ощущает одетый по сезону человек в тени. Характеристика душности погоды. При расчете учитывается влияние влажности воздуха и скорости ветра на теплоощущения человека.
Tes - Эффективная температура на солнце - температура, которую ощущает человек, с поправкой на солнечный нагрев. Характеристика знойности погоды. Зависит от высоты солнца над горизонтом, облачности и скорости ветра. Ночью, в пасмурную погоду, а также при ветре 12 м/с и более поправка равна нулю.
P - Атмосферное давление - приведенное к уровню моря атмосферное давление.
Po - Атмосферное давление - измеренное на уровне метеостанции атмосферное давление.
Tmin - Минимальная температура - минимум температуры воздуха на высоте 2 м над землей.
Tmax - Максимальная температура - максимум температуры воздуха на высоте 2 м над землей.
R - Количество осадков - Количество выпавших осадков за период времени, мм. При наведении курсора мыши на число - период времени, за который выпало указанное количество осадков.
R24 - Количество осадков - Количество выпавших осадков за 24 часа, мм.
S - Снежный покров - Высота снежного покрова, см. При наведении курсора мыши на число - состояние снежного покрова и степень покрытия местности в баллах.